Powrót do katalogu

COSMOS 970 DEB

AktywnyLEO
NORAD 64980·DEBRIS·🇷🇺 Russia

Wystrzelony Dec 21, 1977 z Baikonur Cosmodrome

Loading…

Następne Przeloty (najbliższe 24 godziny)

TLE

Starzejące sięSource: Space-Track

Epoka: Sep 12, 2026, 10:12 UTC

1 64980U 77121CR  26255.42567222  .00000216  00000-0  30701-3 0  9998
2 64980  65.8312 136.3168 0111833 122.9959  50.9847 13.72879322119228

Śledź COSMOS 970 DEB w czasie rzeczywistym z AllMySat

Download on the App Store